EW2964 Weather Reports


Display with metric or nautical units.
time (UTC)temp
F
wind
direction
speed
MPH
gust
MPH
rain 1hr
in
rain 24hr
in
rain mn
in
humidity
%
barometer
mb
20210616170246 74 355 1.0 7.0 0.00 0.00 0.00 45 1006.0
20210616165733 73 238 1.0 11.0 0.00 0.00 0.00 45 1006.1
20210616165228 73 17 3.0 11.0 0.00 0.00 0.00 44 1006.1
20210616164724 73 278 3.0 15.0 0.00 0.00 0.00 44 1006.1
20210616164225 73 252 2.0 15.0 0.00 0.00 0.00 44 1006.1
20210616163723 73 315 3.0 11.0 0.00 0.00 0.00 45 1006.1
20210616163226 73 355 3.0 11.0 0.00 0.00 0.00 45 1006.1
20210616162705 73 331 2.0 11.0 0.00 0.00 0.00 44 1006.1
20210616162204 73 26 2.0 10.0 0.00 0.00 0.00 46 1005.7
20210616161703 73 204 2.0 10.0 0.00 0.00 0.00 45 1005.7
20210616161204 73 36 1.0 7.0 0.00 0.00 0.00 44 1005.7
20210616160626 73 13 2.0 9.0 0.00 0.00 0.00 46 1005.7
20210616160128 73 0 3.0 9.0 0.00 0.00 0.00 44 1005.7
20210616155623 73 12 3.0 13.0 0.00 0.00 0.00 46 1005.7
20210616155127 72 10 3.0 13.0 0.00 0.00 0.00 47 1005.7
20210616154629 72 304 3.0 11.0 0.00 0.00 0.00 46 1005.7
20210616154115 72 46 3.0 10.0 0.00 0.00 0.00 47 1005.7
20210616153616 72 207 3.0 10.0 0.00 0.00 0.00 47 1005.7
20210616153113 72 280 3.0 7.0 0.00 0.00 0.00 48 1005.7
20210616152612 72 230 2.0 10.0 0.00 0.00 0.00 50 1005.7
20210616152113 72 355 3.0 10.0 0.00 0.00 0.00 51 1005.7
20210616151614 71 263 4.0 10.0 0.00 0.00 0.00 50 1005.7
20210616151107 71 0 4.0 8.0 0.00 0.00 0.00 49 1005.7
20210616150601 72 334 3.0 8.0 0.00 0.00 0.00 50 1005.7
20210616150057 72 256 3.0 11.0 0.00 0.00 0.00 50 1005.7
20210616145553 72 316 2.0 11.0 0.00 0.00 0.00 49 1005.7
20210616145046 72 5 1.0 6.0 0.00 0.00 0.00 48 1005.7
20210616144545 72 355 1.0 6.0 0.00 0.00 0.00 50 1005.7
20210616144048 72 5 2.0 8.0 0.00 0.00 0.00 52 1005.8
20210616143546 71 15 3.0 8.0 0.00 0.00 0.00 53 1005.8
20210616143010 71 350 2.0 10.0 0.00 0.00 0.00 53 1005.8
20210616142454 72 254 3.0 12.0 0.00 0.00 0.00 54 1005.8
20210616141955 72 11 3.0 12.0 0.00 0.00 0.00 54 1005.8
20210616141451 72 345 1.0 8.0 0.00 0.00 0.00 56 1005.8
20210616140954 72 32 2.0 7.0 0.00 0.00 0.00 58 1005.6
20210616140438 71 0 1.0 7.0 0.00 0.00 0.00 58 1005.6
20210616135938 71 299 1.0 9.0 0.00 0.00 0.00 62 1005.6
20210616135438 71 329 1.0 9.0 0.00 0.00 0.00 62 1005.6
20210616134914 70 262 1.0 6.0 0.00 0.00 0.00 62 1005.6
20210616134406 70 261 1.0 8.0 0.00 0.00 0.00 65 1005.6
20210616133853 69 242 2.0 9.0 0.00 0.00 0.00 65 1005.6
20210616133324 69 271 2.0 9.0 0.00 0.00 0.00 65 1005.6
20210616132828 69 281 1.0 7.0 0.00 0.00 0.00 66 1005.4
20210616132322 69 19 1.0 8.0 0.00 0.00 0.00 66 1005.4
20210616131825 69 134 2.0 11.0 0.00 0.00 0.00 67 1005.4
20210616131322 68 284 2.0 11.0 0.00 0.00 0.00 66 1005.4
20210616130816 68 226 3.0 9.0 0.00 0.00 0.00 67 1005.4
20210616130316 68 9 3.0 9.0 0.00 0.00 0.00 67 1005.4
20210616125813 68 50 2.0 11.0 0.00 0.00 0.00 68 1005.4
20210616125312 68 355 1.0 11.0 0.00 0.00 0.00 67 1005.4
20210616124813 67 268 0.0 5.0 0.00 0.00 0.00 69 1005.1
20210616124307 67 236 1.0 8.0 0.00 0.00 0.00 70 1005.1
20210616123806 67 329 2.0 8.0 0.00 0.00 0.00 70 1005.1
20210616123306 67 244 3.0 9.0 0.00 0.00 0.00 71 1005.1
20210616122802 66 11 3.0 10.0 0.00 0.00 0.00 71 1005.1
20210616122305 66 306 3.0 10.0 0.00 0.00 0.00 71 1005.1
20210616121747 66 266 3.0 7.0 0.00 0.00 0.00 72 1005.1
20210616121243 66 307 2.0 8.0 0.00 0.00 0.00 72 1005.1
20210616120743 65 340 3.0 9.0 0.00 0.00 0.00 73 1004.9
20210616120236 65 0 3.0 10.0 0.00 0.00 0.00 73 1004.9
20210616115735 65 52 3.0 12.0 0.00 0.00 0.00 73 1004.9
20210616115240 65 5 4.0 15.0 0.00 0.00 0.00 74 1004.9
20210616114729 64 338 3.0 15.0 0.00 0.00 0.00 74 1004.9
20210616114229 65 284 2.0 10.0 0.00 0.00 0.00 74 1004.9
20210616113732 64 241 2.0 9.0 0.00 0.00 0.00 75 1004.9
20210616113228 64 355 2.0 9.0 0.00 0.00 0.00 75 1004.8
20210616112727 64 308 1.0 8.0 0.00 0.00 0.00 75 1004.8
20210616112219 64 35 1.0 7.0 0.00 0.00 0.00 76 1004.8
20210616111717 63 347 2.0 8.0 0.00 0.00 0.00 76 1004.8
20210616111208 63 291 2.0 8.0 0.00 0.00 0.00 76 1004.7
20210616110700 63 5 1.0 8.0 0.00 0.00 0.00 76 1004.7
20210616110154 63 234 1.0 8.0 0.00 0.00 0.00 76 1004.7
20210616105651 63 216 1.0 8.0 0.00 0.00 0.00 76 1004.7
20210616105152 62 346 0.0 5.0 0.00 0.00 0.00 77 1003.7
20210616104632 62 304 1.0 6.0 0.00 0.00 0.00 78 1003.7
20210616104130 62 0 1.0 6.0 0.00 0.00 0.00 78 1003.7
20210616103609 62 15 1.0 5.0 0.00 0.00 0.00 78 1003.7
20210616103110 61 346 0.0 4.0 0.00 0.00 0.00 79 1003.7
20210616102602 61 264 0.0 4.0 0.00 0.00 0.00 79 1003.7
20210616102106 61 305 0.0 4.0 0.00 0.00 0.00 79 1003.7
20210616101554 61 16 0.0 1.0 0.00 0.00 0.00 80 1003.7
20210616101028 60 16 0.0 6.0 0.00 0.00 0.00 80 1003.7
20210616100514 60 16 0.0 6.0 0.00 0.00 0.00 80 1003.7
20210616100015 60 344 0.0 3.0 0.00 0.00 0.00 80 1003.7
20210616095508 60 344 0.0 3.0 0.00 0.00 0.00 80 1003.7
20210616095007 60 21 0.0 0.0 0.00 0.00 0.00 80 1003.7
20210616094452 60 21 0.0 1.0 0.00 0.00 0.00 80 1003.7
20210616093946 60 21 0.0 4.0 0.00 0.00 0.00 80 1003.7
20210616093422 60 22 0.0 4.0 0.00 0.00 0.00 80 1003.6
20210616092908 60 355 0.0 2.0 0.00 0.00 0.00 80 1003.6
20210616092403 60 33 0.0 5.0 0.00 0.00 0.00 80 1003.5
20210616091903 60 33 0.0 5.0 0.00 0.00 0.00 80 1003.2
20210616091404 61 338 0.0 5.0 0.00 0.00 0.00 80 1003.2
20210616090848 61 338 0.0 3.0 0.00 0.00 0.00 80 1003.2
20210616090349 61 333 0.0 3.0 0.00 0.00 0.00 79 1003.2
20210616085832 61 343 0.0 3.0 0.00 0.00 0.00 79 1003.2
20210616085316 61 5 0.0 2.0 0.00 0.00 0.00 79 1003.2
20210616084808 61 5 0.0 5.0 0.00 0.00 0.00 80 1003.1
20210616084307 61 265 0.0 5.0 0.00 0.00 0.00 79 1003.1
20210616083807 61 0 1.0 5.0 0.00 0.00 0.00 79 1003.1
20210616083257 62 11 0.0 5.0 0.00 0.00 0.00 79 1003.1
20210616082752 62 249 0.0 5.0 0.00 0.00 0.00 79 1003.1
20210616082228 62 285 0.0 6.0 0.00 0.00 0.00 79 1003.1
20210616081707 62 19 0.0 6.0 0.00 0.00 0.00 80 1003.1
20210616081206 62 321 0.0 1.0 0.00 0.00 0.00 80 1003.1
20210616080656 62 348 0.0 4.0 0.00 0.00 0.00 80 1003.1
20210616080148 62 347 0.0 6.0 0.00 0.00 0.00 80 1003.1
20210616075613 62 288 0.0 6.0 0.00 0.01 0.00 81 1003.1
20210616075114 62 5 0.0 6.0 0.00 0.01 0.00 81 1003.1
20210616074613 62 336 0.0 4.0 0.00 0.01 0.00 81 1003.1
20210616074107 62 338 0.0 4.0 0.00 0.01 0.00 81 1003.1
20210616073606 62 348 0.0 1.0 0.00 0.01 0.00 81 1003.1
20210616073108 62 348 0.0 1.0 0.00 0.01 0.00 81 1003.3
20210616072559 62 348 0.0 1.0 0.00 0.01 0.00 81 1003.3
20210616072047 62 347 0.0 0.0 0.00 0.01 0.00 81 1003.3
20210616071547 63 348 0.0 0.0 0.00 0.01 0.00 80 1003.3
20210616071042 63 348 0.0 1.0 0.00 0.01 0.00 80 1003.3
20210616070540 63 348 0.0 1.0 0.00 0.01 0.00 80 1003.3
20210616070007 63 11 0.0 1.0 0.00 0.01 0.00 80 1003.3
20210616065505 63 331 0.0 1.0 0.00 0.01 0.00 80 1003.3
20210616065007 63 331 0.0 2.0 0.00 0.01 0.00 79 1003.3
20210616064503 63 331 0.0 2.0 0.00 0.01 0.00 79 1003.3
20210616063949 63 355 0.0 1.0 0.00 0.01 0.00 79 1003.3
20210616063440 63 355 0.0 6.0 0.00 0.01 0.00 79 1003.3
20210616062929 64 5 0.0 6.0 0.00 0.01 0.00 80 1003.3
20210616062421 64 5 0.0 6.0 0.00 0.01 0.00 80 1003.3
20210616061919 64 9 0.0 6.0 0.00 0.01 0.00 81 1003.3
20210616061357 64 10 0.0 3.0 0.00 0.01 0.00 81 1003.3
20210616060846 64 215 0.0 3.0 0.00 0.01 0.00 81 1003.3
20210616060340 64 313 0.0 6.0 0.00 0.01 0.00 82 1003.3
20210616055838 64 311 0.0 6.0 0.00 0.01 0.00 81 1003.3
20210616055306 64 340 0.0 1.0 0.00 0.01 0.00 81 1003.3
20210616054806 64 340 0.0 1.0 0.00 0.01 0.00 80 1003.3
20210616054302 65 340 0.0 0.0 0.00 0.01 0.00 80 1003.3
20210616053753 65 340 0.0 0.0 0.00 0.01 0.00 79 1003.3
20210616053250 65 342 0.0 0.0 0.00 0.01 0.00 78 1003.5
20210616052745 65 342 0.0 4.0 0.00 0.01 0.00 76 1003.5
20210616052247 65 342 1.0 7.0 0.00 0.01 0.00 76 1003.5
20210616051719 65 343 1.0 7.0 0.00 0.01 0.00 76 1003.5
20210616051211 65 292 0.0 5.0 0.00 0.01 0.00 76 1003.5
20210616050656 65 31 0.0 5.0 0.00 0.01 0.00 77 1003.5
20210616050146 65 322 0.0 7.0 0.00 0.01 0.00 77 1003.5
20210616045641 65 30 1.0 7.0 0.00 0.01 0.00 78 1003.5
20210616045136 65 314 0.0 6.0 0.00 0.01 0.00 78 1003.5
20210616044636 66 282 0.0 4.0 0.00 0.01 0.00 78 1003.5
20210616044119 66 313 0.0 2.0 0.00 0.01 0.00 79 1003.5
20210616043609 66 18 0.0 4.0 0.00 0.01 0.00 78 1003.5
20210616043108 66 17 0.0 5.0 0.00 0.01 0.00 78 1003.5
20210616042555 66 275 0.0 6.0 0.00 0.01 0.00 78 1003.5
20210616042047 66 5 1.0 7.0 0.00 0.01 0.00 78 1003.5
20210616041533 66 0 1.0 9.0 0.00 0.01 0.00 78 1003.5
20210616041020 66 17 1.0 6.0 0.00 0.01 0.00 78 1003.5
20210616040512 67 340 1.0 6.0 0.00 0.01 0.00 78 1003.5
20210616035957 67 29 1.0 6.0 0.00 0.01 0.01 78 1003.1
20210616035429 67 348 0.0 4.0 0.00 0.01 0.01 78 1003.1
20210616034929 67 263 0.0 2.0 0.00 0.01 0.01 78 1003.1
20210616034416 67 346 0.0 2.0 0.00 0.01 0.01 77 1003.1
20210616033914 67 346 0.0 3.0 0.00 0.01 0.01 77 1003.1
20210616033410 67 311 0.0 3.0 0.00 0.02 0.01 77 1003.1
20210616032900 67 261 0.0 2.0 0.00 0.02 0.01 76 1003.1
20210616032353 67 261 0.0 2.0 0.00 0.03 0.01 76 1003.1
20210616031854 67 278 0.0 1.0 0.00 0.03 0.01 76 1003.1
20210616031345 68 281 0.0 1.0 0.00 0.03 0.01 75 1003.1
20210616030844 68 263 0.0 2.0 0.00 0.03 0.01 75 1003.1
20210616030340 68 263 0.0 2.0 0.00 0.03 0.01 75 1003.1
20210616025839 68 263 0.0 2.0 0.00 0.03 0.01 75 1003.1
20210616025340 68 355 0.0 2.0 0.00 0.03 0.01 74 1003.1
20210616024839 68 355 0.0 2.0 0.00 0.03 0.01 74 1003.1
20210616024337 68 331 0.0 7.0 0.00 0.03 0.01 74 1003.1
20210616023838 68 340 0.0 7.0 0.00 0.03 0.01 74 1003.1
20210616023313 68 341 0.0 0.0 0.00 0.03 0.01 74 1003.1
20210616022806 69 290 0.0 0.0 0.00 0.03 0.01 74 1003.1
20210616022305 69 275 0.0 0.0 0.00 0.03 0.01 73 1003.1
20210616021800 69 275 0.0 0.0 0.00 0.03 0.01 73 1003.1
20210616021231 69 275 0.0 0.0 0.00 0.03 0.01 73 1003.1
20210616020712 69 275 0.0 5.0 0.00 0.03 0.01 72 1003.1
20210616020207 69 275 0.0 5.0 0.00 0.03 0.01 72 1003.1
20210616015658 69 355 0.0 0.0 0.00 0.03 0.01 71 1002.9
20210616015156 70 0 0.0 0.0 0.00 0.03 0.01 71 1002.9
20210616014648 70 345 0.0 1.0 0.00 0.03 0.01 71 1002.9
20210616014145 70 247 0.0 5.0 0.00 0.03 0.01 70 1002.9
20210616013645 70 247 0.0 5.0 0.00 0.03 0.01 70 1002.9
20210616013142 70 237 0.0 6.0 0.00 0.03 0.01 70 1002.9
20210616012640 71 237 0.0 6.0 0.00 0.03 0.01 69 1002.2
20210616012140 71 296 0.0 5.0 0.00 0.03 0.01 69 1002.2
20210616011627 71 5 0.0 4.0 0.00 0.03 0.01 68 1002.2
20210616011124 71 232 0.0 6.0 0.00 0.03 0.01 68 1002.2
20210616010625 71 232 0.0 6.0 0.00 0.03 0.01 68 1002.2
20210616010110 71 252 0.0 5.0 0.00 0.03 0.01 67 1002.2
20210616005606 71 254 0.0 6.0 0.00 0.03 0.01 66 1002.2
20210616005103 71 248 0.0 7.0 0.00 0.03 0.01 65 1002.2
20210616004602 72 246 0.0 7.0 0.00 0.03 0.01 65 1002.2
20210616004051 72 258 0.0 2.0 0.00 0.03 0.01 65 1002.2
20210616003547 72 255 0.0 2.0 0.00 0.03 0.01 65 1002.2
20210616003030 72 255 0.0 5.0 0.00 0.03 0.01 64 1002.2
20210616002506 73 255 0.0 5.0 0.00 0.03 0.01 64 1002.2
20210616002006 73 267 0.0 4.0 0.00 0.03 0.01 64 1001.9
20210616001453 73 273 0.0 2.0 0.00 0.03 0.01 63 1001.9
20210616000935 73 273 0.0 2.0 0.00 0.03 0.01 62 1001.9
20210616000428 74 312 0.0 6.0 0.00 0.03 0.01 61 1001.9
20210615235908 74 300 1.0 6.0 0.00 0.03 0.01 61 1001.9
20210615235404 74 267 1.0 8.0 0.00 0.03 0.01 60 1001.9
20210615234847 74 259 1.0 9.0 0.00 0.03 0.01 59 1001.9
20210615234349 74 231 1.0 9.0 0.00 0.03 0.01 59 1001.9
20210615233845 75 254 1.0 8.0 0.00 0.03 0.01 58 1001.9
20210615233343 75 275 1.0 7.0 0.00 0.03 0.01 58 1001.9
20210615232833 75 243 1.0 7.0 0.00 0.03 0.01 58 1001.9
20210615232307 75 269 0.0 8.0 0.00 0.03 0.01 59 1001.9
20210615231805 75 244 0.0 8.0 0.00 0.03 0.01 61 1001.7
20210615231303 76 288 2.0 10.0 0.00 0.03 0.01 61 1001.7
20210615230747 76 266 2.0 10.0 0.00 0.03 0.01 62 1001.5
20210615230240 75 295 1.0 7.0 0.00 0.03 0.01 70 1001.5
20210615225741 75 269 0.0 2.0 0.00 0.03 0.01 73 1001.5
20210615225240 75 269 0.0 1.0 0.00 0.03 0.01 74 1001.5
20210615224732 75 269 0.0 4.0 0.00 0.03 0.01 74 1001.5
20210615224215 75 258 0.0 6.0 0.00 0.03 0.01 73 1001.5
20210615223712 75 259 0.0 6.0 0.00 0.03 0.01 73 1001.5
20210615223215 75 237 0.0 2.0 0.00 0.03 0.01 73 1001.5
20210615222703 75 234 0.0 5.0 0.00 0.03 0.01 73 1001.5
20210615222205 75 277 0.0 5.0 0.00 0.03 0.01 73 1001.5
20210615221655 75 196 0.0 4.0 0.00 0.03 0.01 73 1001.5
20210615221140 75 187 0.0 3.0 0.00 0.03 0.01 73 1001.5
20210615220637 76 184 0.0 3.0 0.00 0.03 0.01 73 1001.5
20210615220135 76 183 0.0 1.0 0.00 0.03 0.01 72 1001.5
20210615215618 76 186 1.0 7.0 0.00 0.03 0.01 72 1001.5
20210615215107 76 186 1.0 7.0 0.00 0.03 0.01 71 1001.5
20210615214608 77 217 0.0 2.0 0.00 0.03 0.01 71 1001.5
20210615214029 77 217 0.0 2.0 0.00 0.03 0.01 70 1001.5
20210615213532 77 217 0.0 2.0 0.00 0.03 0.01 69 1001.5
20210615213008 77 217 0.0 2.0 0.00 0.03 0.01 68 1001.9
20210615212506 77 215 0.0 3.0 0.00 0.03 0.01 66 1001.9
20210615211955 78 209 0.0 3.0 0.00 0.03 0.01 66 1001.9
20210615211442 78 231 0.0 4.0 0.00 0.03 0.01 67 1001.9
20210615210919 77 234 0.0 4.0 0.00 0.03 0.01 67 1001.9
20210615210416 77 230 0.0 4.0 0.00 0.03 0.01 67 1001.9
20210615205910 77 266 0.0 5.0 0.00 0.03 0.01 66 1001.9
20210615205410 77 187 0.0 5.0 0.00 0.03 0.01 66 1001.9
20210615204854 77 232 0.0 5.0 0.00 0.03 0.01 67 1001.9
20210615204349 76 284 1.0 6.0 0.00 0.03 0.01 67 1001.9
20210615203845 77 301 2.0 8.0 0.00 0.03 0.01 66 1001.9
20210615203340 77 263 1.0 8.0 0.00 0.03 0.01 67 1001.9
20210615202838 77 227 1.0 8.0 0.00 0.03 0.01 69 1001.9
20210615202340 77 235 0.0 6.0 0.00 0.03 0.01 70 1001.9
20210615201836 77 191 0.0 6.0 0.00 0.03 0.01 69 1001.9
20210615201314 78 227 0.0 4.0 0.00 0.03 0.01 69 1001.9
20210615200812 78 212 0.0 1.0 0.00 0.03 0.01 68 1001.9
20210615200247 78 213 0.0 4.0 0.00 0.03 0.01 67 1001.9
20210615195739 78 209 0.0 4.0 0.00 0.03 0.01 67 1001.9
20210615195213 78 198 0.0 1.0 0.00 0.03 0.01 68 1001.9
20210615194707 78 219 0.0 2.0 0.00 0.03 0.01 69 1001.9
20210615194205 78 219 0.0 5.0 0.00 0.03 0.01 68 1001.9
20210615193701 78 219 1.0 5.0 0.00 0.03 0.01 67 1001.9
20210615193159 78 215 1.0 7.0 0.00 0.03 0.01 66 1001.9
20210615192656 79 198 1.0 7.0 0.00 0.03 0.01 67 1002.4
20210615192157 79 238 1.0 8.0 0.00 0.03 0.01 66 1002.4
20210615191644 80 261 1.0 8.0 0.00 0.03 0.01 64 1002.4
20210615191145 79 287 1.0 6.0 0.00 0.03 0.01 55 1002.4
20210615190636 79 65 1.0 6.0 0.00 0.03 0.01 54 1002.4
20210615190129 79 211 1.0 6.0 0.00 0.03 0.01 55 1002.4
20210615185614 79 293 1.0 8.0 0.00 0.03 0.01 55 1002.4
20210615185108 79 253 1.0 8.0 0.00 0.03 0.01 55 1002.4
20210615184605 79 279 1.0 7.0 0.00 0.03 0.01 57 1002.4
20210615184104 79 271 1.0 7.0 0.00 0.03 0.01 57 1002.4
20210615183607 78 225 1.0 7.0 0.00 0.03 0.01 57 1002.4
20210615183052 78 275 1.0 7.0 0.00 0.03 0.01 58 1002.4
20210615182555 78 12 1.0 7.0 0.00 0.03 0.01 59 1002.4
20210615182042 78 17 1.0 6.0 0.00 0.03 0.01 58 1002.4
20210615181524 78 331 1.0 6.0 0.00 0.03 0.01 58 1002.4
20210615181022 78 305 1.0 7.0 0.00 0.03 0.01 57 1002.8
20210615180522 78 36 1.0 7.0 0.00 0.03 0.01 58 1002.8
20210615180020 78 246 2.0 9.0 0.00 0.03 0.01 60 1002.8
20210615175506 78 230 2.0 9.0 0.00 0.03 0.01 59 1002.8
20210615175005 78 248 0.0 6.0 0.00 0.03 0.01 61 1002.8
20210615174504 77 242 0.0 2.0 0.00 0.03 0.01 61 1002.8
20210615173956 77 242 0.0 5.0 0.00 0.03 0.01 66 1002.8
20210615173447 76 247 1.0 7.0 0.00 0.03 0.01 69 1002.8
20210615172918 76 246 0.0 5.0 0.00 0.04 0.01 69 1002.8
20210615172417 76 253 0.0 1.0 0.00 0.04 0.01 71 1002.8
20210615171906 76 253 0.0 1.0 0.00 0.04 0.01 72 1002.8
20210615171348 75 254 0.0 5.0 0.00 0.04 0.01 73 1002.8
20210615170816 75 255 1.0 5.0 0.00 0.04 0.01 74 1002.8
20210615170312 74 259 1.0 5.0 0.00 0.04 0.01 74 1003.0